Time,TemperatureF,DewpointF,PressureIn,WindDirection,WindDirectionDegrees,WindSpeedMPH,WindSpeedGustMPH,Humidity,HourlyPrecipIn,Conditions,Clouds,dailyrainin,SoftwareType,DateUTC
2013-05-12 00:01:00,39.6,29.2,30.09,NW,304,10.0,11.0,66,0.00,,,0.00,LWC V2.10 B1813,2013-05-12 08:01:00,
2013-05-12 00:06:00,39.5,29.1,30.09,NW,326,3.0,13.0,66,0.00,,,0.00,LWC V2.10 B1813,2013-05-12 08:06:00,
2013-05-12 00:11:00,39.5,28.7,30.09,NW,321,8.0,12.0,65,0.00,,,0.00,LWC V2.10 B1813,2013-05-12 08:11:00,
2013-05-12 00:16:00,39.6,29.2,30.09,NW,314,9.0,14.0,66,0.00,,,0.00,LWC V2.10 B1813,2013-05-12 08:16:00,
2013-05-12 00:21:00,39.5,29.1,30.09,WNW,293,8.0,12.0,66,0.00,,,0.00,LWC V2.10 B1813,2013-05-12 08:21:00,
2013-05-12 00:26:00,39.5,29.1,30.09,North,0,10.0,14.0,66,0.00,,,0.00,LWC V2.10 B1813,2013-05-12 08:26:00,
2013-05-12 00:31:00,39.5,29.1,30.09,North,0,10.0,13.0,66,0.00,,,0.00,LWC V2.10 B1813,2013-05-12 08:31:00,
2013-05-12 00:36:00,39.4,29.0,30.09,NW,322,8.0,15.0,66,0.00,,,0.00,LWC V2.10 B1813,2013-05-12 08:36:00,
2013-05-12 00:41:00,39.4,29.0,30.09,NW,326,8.0,15.0,66,0.00,,,0.00,LWC V2.10 B1813,2013-05-12 08:41:00,
2013-05-12 00:46:00,39.3,29.3,30.09,NNW,340,6.0,16.0,67,0.00,,,0.00,LWC V2.10 B1813,2013-05-12 08:46:00,
2013-05-12 00:51:00,39.2,29.2,30.08,WSW,256,15.0,17.0,67,0.00,,,0.00,LWC V2.10 B1813,2013-05-12 08:51:00,
2013-05-12 00:56:00,39.0,29.0,30.08,NNW,342,9.0,13.0,67,0.00,,,0.00,LWC V2.10 B1813,2013-05-12 08:56:00,
2013-05-12 01:01:00,38.9,28.9,30.08,NW,324,10.0,14.0,67,0.00,,,0.00,LWC V2.10 B1813,2013-05-12 09:01:00,
2013-05-12 01:06:00,38.7,29.1,30.09,North,0,6.0,13.0,68,0.00,,,0.00,LWC V2.10 B1813,2013-05-12 09:06:00,
2013-05-12 01:11:00,38.6,29.0,30.08,North,0,2.0,11.0,68,0.00,,,0.00,LWC V2.10 B1813,2013-05-12 09:11:00,
2013-05-12 01:16:00,38.5,28.9,30.08,NNE,18,5.0,11.0,68,0.00,,,0.00,LWC V2.10 B1813,2013-05-12 09:16:00,
2013-05-12 01:21:00,38.4,29.1,30.08,NNW,328,10.0,12.0,69,0.00,,,0.00,LWC V2.10 B1813,2013-05-12 09:21:00,
2013-05-12 01:26:00,38.3,29.0,30.08,NW,320,3.0,11.0,69,0.00,,,0.00,LWC V2.10 B1813,2013-05-12 09:26:00,
2013-05-12 01:31:00,38.2,28.9,30.08,NNW,329,4.0,11.0,69,0.00,,,0.00,LWC V2.10 B1813,2013-05-12 09:31:00,
2013-05-12 01:36:00,38.1,28.8,30.08,NNW,336,9.0,10.0,69,0.00,,,0.00,LWC V2.10 B1813,2013-05-12 09:36:00,
2013-05-12 01:41:00,38.1,28.8,30.08,NW,315,8.0,14.0,69,0.00,,,0.00,LWC V2.10 B1813,2013-05-12 09:41:00,
2013-05-12 01:46:00,38.2,28.9,30.08,North,0,12.0,12.0,69,0.00,,,0.00,LWC V2.10 B1813,2013-05-12 09:46:00,
2013-05-12 01:51:00,38.3,29.0,30.08,NW,313,5.0,12.0,69,0.00,,,0.00,LWC V2.10 B1813,2013-05-12 09:51:00,
2013-05-12 01:56:00,38.4,29.5,30.08,NW,325,3.0,12.0,70,0.00,,,0.00,LWC V2.10 B1813,2013-05-12 09:56:00,
2013-05-12 02:01:00,38.4,29.1,30.08,NNW,336,10.0,11.0,69,0.00,,,0.00,LWC V2.10 B1813,2013-05-12 10:01:00,
2013-05-12 02:06:00,38.6,29.3,30.07,North,0,8.0,15.0,69,0.00,,,0.00,LWC V2.10 B1813,2013-05-12 10:06:00,
2013-05-12 02:11:00,38.7,29.4,30.07,NW,311,7.0,12.0,69,0.00,,,0.00,LWC V2.10 B1813,2013-05-12 10:11:00,
2013-05-12 02:16:00,38.8,28.8,30.07,North,0,0.0,12.0,67,0.00,,,0.00,LWC V2.10 B1813,2013-05-12 10:16:00,
2013-05-12 02:21:00,39.2,28.8,30.07,North,0,7.0,7.0,66,0.00,,,0.00,LWC V2.10 B1813,2013-05-12 10:21:00,
2013-05-12 02:26:00,39.6,29.2,30.07,NNE,17,3.0,9.0,66,0.00,,,0.00,LWC V2.10 B1813,2013-05-12 10:26:00,
2013-05-12 02:31:00,40.4,28.8,30.07,NE,55,0.0,5.0,63,0.00,,,0.00,LWC V2.10 B1813,2013-05-12 10:31:00,
2013-05-12 02:36:00,40.7,29.5,30.07,NNE,30,3.0,3.0,64,0.00,,,0.00,LWC V2.10 B1813,2013-05-12 10:36:00,
2013-05-12 02:41:00,40.8,29.2,30.07,WNW,301,3.0,9.0,63,0.00,,,0.00,LWC V2.10 B1813,2013-05-12 10:41:00,
2013-05-12 02:46:00,40.8,29.6,30.07,WNW,292,8.0,10.0,64,0.00,,,0.00,LWC V2.10 B1813,2013-05-12 10:46:00,
2013-05-12 02:51:00,40.4,29.6,30.07,NW,313,5.0,9.0,65,0.00,,,0.00,LWC V2.10 B1813,2013-05-12 10:51:00,
2013-05-12 02:56:00,39.8,29.8,30.07,NW,313,7.0,12.0,67,0.00,,,0.00,LWC V2.10 B1813,2013-05-12 10:56:00,
2013-05-12 03:01:00,39.2,29.9,30.07,North,0,7.0,13.0,69,0.00,,,0.00,LWC V2.10 B1813,2013-05-12 11:01:00,
2013-05-12 03:06:00,38.7,29.4,30.06,NNW,333,6.0,10.0,69,0.00,,,0.00,LWC V2.10 B1813,2013-05-12 11:06:00,
2013-05-12 03:11:00,38.6,29.0,30.06,NNE,14,1.0,4.0,68,0.00,,,0.00,LWC V2.10 B1813,2013-05-12 11:11:00,
2013-05-12 03:16:00,38.7,29.4,30.06,NW,310,0.0,7.0,69,0.00,,,0.00,LWC V2.10 B1813,2013-05-12 11:16:00,
2013-05-12 03:21:00,38.7,29.4,30.06,NW,309,1.0,6.0,69,0.00,,,0.00,LWC V2.10 B1813,2013-05-12 11:21:00,
2013-05-12 03:26:00,38.6,29.3,30.06,NW,323,3.0,11.0,69,0.00,,,0.00,LWC V2.10 B1813,2013-05-12 11:26:00,
2013-05-12 03:31:00,38.4,29.1,30.06,NW,326,3.0,7.0,69,0.00,,,0.00,LWC V2.10 B1813,2013-05-12 11:31:00,
2013-05-12 03:35:00,38.2,28.9,30.06,NW,325,0.0,3.0,69,0.00,,,0.00,LWC V2.10 B1813,2013-05-12 11:35:00,
2013-05-12 03:40:00,37.9,29.0,30.06,NNW,329,0.0,3.0,70,0.00,,,0.00,LWC V2.10 B1813,2013-05-12 11:40:00,
2013-05-12 03:45:00,37.7,28.5,30.05,NW,318,0.0,4.0,69,0.00,,,0.00,LWC V2.10 B1813,2013-05-12 11:45:00,
2013-05-12 03:50:00,37.5,28.6,30.05,North,0,3.0,5.0,70,0.00,,,0.00,LWC V2.10 B1813,2013-05-12 11:50:00,
2013-05-12 03:55:00,37.3,28.4,30.05,NNW,333,2.0,5.0,70,0.00,,,0.00,LWC V2.10 B1813,2013-05-12 11:55:00,
2013-05-12 04:00:00,37.0,28.5,30.05,North,0,3.0,6.0,71,0.00,,,0.00,LWC V2.10 B1813,2013-05-12 12:00:00,
2013-05-12 04:05:00,36.7,28.2,30.05,NW,315,2.0,6.0,71,0.00,,,0.00,LWC V2.10 B1813,2013-05-12 12:05:00,
2013-05-12 04:10:00,36.8,28.3,30.05,NW,317,4.0,8.0,71,0.00,,,0.00,LWC V2.10 B1813,2013-05-12 12:10:00,
2013-05-12 04:15:00,37.1,28.6,30.05,North,0,0.0,6.0,71,0.00,,,0.00,LWC V2.10 B1813,2013-05-12 12:15:00,
2013-05-12 04:20:00,37.0,28.5,30.05,NNW,340,5.0,10.0,71,0.00,,,0.00,LWC V2.10 B1813,2013-05-12 12:20:00,
2013-05-12 04:25:00,36.8,29.3,30.05,NW,324,5.0,11.0,74,0.00,,,0.00,LWC V2.10 B1813,2013-05-12 12:25:00,
2013-05-12 04:30:00,36.5,29.3,30.05,NNW,340,6.0,10.0,75,0.00,,,0.00,LWC V2.10 B1813,2013-05-12 12:30:00,
2013-05-12 04:35:00,36.1,29.3,30.05,NW,314,2.0,7.0,76,0.00,,,0.00,LWC V2.10 B1813,2013-05-12 12:35:00,
2013-05-12 04:40:00,36.0,28.9,30.05,NW,314,2.0,6.0,75,0.00,,,0.00,LWC V2.10 B1813,2013-05-12 12:40:00,
2013-05-12 04:45:00,36.2,28.7,30.05,North,0,0.0,3.0,74,0.00,,,0.00,LWC V2.10 B1813,2013-05-12 12:45:00,
2013-05-12 04:50:00,36.5,28.7,30.05,NW,319,1.0,5.0,73,0.00,,,0.00,LWC V2.10 B1813,2013-05-12 12:50:00,
2013-05-12 04:55:00,36.9,29.1,30.05,WNW,292,0.0,5.0,73,0.00,,,0.00,LWC V2.10 B1813,2013-05-12 12:55:00,
2013-05-12 05:00:00,37.1,28.9,30.05,WNW,297,0.0,1.0,72,0.00,,,0.00,LWC V2.10 B1813,2013-05-12 13:00:00,
2013-05-12 05:05:00,37.1,29.3,30.05,West,281,2.0,2.0,73,0.00,,,0.00,LWC V2.10 B1813,2013-05-12 13:05:00,
2013-05-12 05:10:00,37.1,28.9,30.05,North,0,0.0,2.0,72,0.00,,,0.00,LWC V2.10 B1813,2013-05-12 13:10:00,
2013-05-12 05:15:00,37.0,28.8,30.04,West,281,1.0,3.0,72,0.00,,,0.00,LWC V2.10 B1813,2013-05-12 13:15:00,
2013-05-12 05:20:00,36.9,28.7,30.05,West,281,0.0,3.0,72,0.00,,,0.00,LWC V2.10 B1813,2013-05-12 13:20:00,
2013-05-12 05:25:00,37.0,28.5,30.05,WNW,283,0.0,3.0,71,0.00,,,0.00,LWC V2.10 B1813,2013-05-12 13:25:00,
2013-05-12 05:30:00,37.0,28.5,30.04,WNW,283,1.0,1.0,71,0.00,,,0.00,LWC V2.10 B1813,2013-05-12 13:30:00,
2013-05-12 05:35:00,37.1,28.6,30.04,WNW,283,0.0,2.0,71,0.00,,,0.00,LWC V2.10 B1813,2013-05-12 13:35:00,
2013-05-12 05:40:00,37.3,28.8,30.04,North,0,0.0,2.0,71,0.00,,,0.00,LWC V2.10 B1813,2013-05-12 13:40:00,
2013-05-12 05:45:00,37.6,28.7,30.04,WSW,252,0.0,1.0,70,0.00,,,0.00,LWC V2.10 B1813,2013-05-12 13:45:00,
2013-05-12 05:50:00,37.8,28.9,30.04,WSW,253,0.0,0.0,70,0.00,,,0.00,LWC V2.10 B1813,2013-05-12 13:50:00,
2013-05-12 05:55:00,37.9,28.7,30.04,WSW,252,0.0,0.0,69,0.00,,,0.00,LWC V2.10 B1813,2013-05-12 13:55:00,
2013-05-12 06:00:00,38.1,28.8,30.04,NW,311,0.0,0.0,69,0.00,,,0.00,LWC V2.10 B1813,2013-05-12 14:00:00,
2013-05-12 06:05:00,38.2,28.6,30.04,North,0,0.0,0.0,68,0.00,,,0.00,LWC V2.10 B1813,2013-05-12 14:05:00,
2013-05-12 06:10:00,38.4,28.8,30.04,NW,311,0.0,0.0,68,0.00,,,0.00,LWC V2.10 B1813,2013-05-12 14:10:00,
2013-05-12 06:15:00,38.5,28.9,30.04,NW,311,0.0,0.0,68,0.00,,,0.00,LWC V2.10 B1813,2013-05-12 14:15:00,
2013-05-12 06:20:00,38.6,29.0,30.04,North,0,1.0,1.0,68,0.00,,,0.00,LWC V2.10 B1813,2013-05-12 14:20:00,
2013-05-12 06:25:00,38.6,29.0,30.04,NW,311,0.0,1.0,68,0.00,,,0.00,LWC V2.10 B1813,2013-05-12 14:25:00,
2013-05-12 06:30:00,38.7,28.7,30.04,North,0,0.0,2.0,67,0.00,,,0.00,LWC V2.10 B1813,2013-05-12 14:30:00,
2013-05-12 06:35:00,38.8,29.5,30.04,WNW,296,0.0,2.0,69,0.00,,,0.00,LWC V2.10 B1813,2013-05-12 14:35:00,
2013-05-12 06:40:00,38.8,29.5,30.03,WNW,284,1.0,3.0,69,0.00,,,0.00,LWC V2.10 B1813,2013-05-12 14:40:00,
2013-05-12 06:45:00,38.7,29.8,30.03,WNW,293,0.0,4.0,70,0.00,,,0.00,LWC V2.10 B1813,2013-05-12 14:45:00,
2013-05-12 06:50:00,38.6,29.3,30.03,WNW,292,0.0,2.0,69,0.00,,,0.00,LWC V2.10 B1813,2013-05-12 14:50:00,
2013-05-12 06:55:00,38.6,29.3,30.03,WNW,294,1.0,1.0,69,0.00,,,0.00,LWC V2.10 B1813,2013-05-12 14:55:00,
2013-05-12 07:00:00,38.6,29.3,30.03,WNW,293,0.0,1.0,69,0.00,,,0.00,LWC V2.10 B1813,2013-05-12 15:00:00,
2013-05-12 07:05:00,38.6,29.3,30.03,North,0,0.0,2.0,69,0.00,,,0.00,LWC V2.10 B1813,2013-05-12 15:05:00,
2013-05-12 07:10:00,38.7,29.4,30.03,WNW,292,0.0,0.0,69,0.00,,,0.00,LWC V2.10 B1813,2013-05-12 15:10:00,
2013-05-12 07:15:00,38.8,29.2,30.03,WNW,293,0.0,3.0,68,0.00,,,0.00,LWC V2.10 B1813,2013-05-12 15:15:00,
2013-05-12 07:20:00,38.9,29.3,30.03,North,0,0.0,0.0,68,0.00,,,0.00,LWC V2.10 B1813,2013-05-12 15:20:00,
2013-05-12 07:25:00,39.1,29.4,30.03,WNW,292,0.0,2.0,68,0.00,,,0.00,LWC V2.10 B1813,2013-05-12 15:25:00,
2013-05-12 07:30:00,39.2,29.9,30.03,WNW,292,0.0,1.0,69,0.00,,,0.00,LWC V2.10 B1813,2013-05-12 15:30:00,
2013-05-12 07:35:00,39.4,29.7,30.03,WNW,295,0.0,2.0,68,0.00,,,0.00,LWC V2.10 B1813,2013-05-12 15:35:00,
2013-05-12 07:40:00,39.6,30.3,30.03,WNW,293,0.0,0.0,69,0.00,,,0.00,LWC V2.10 B1813,2013-05-12 15:40:00,
2013-05-12 07:45:00,39.8,30.1,30.03,North,0,0.0,0.0,68,0.00,,,0.00,LWC V2.10 B1813,2013-05-12 15:45:00,
2013-05-12 07:50:00,40.0,29.9,30.03,WNW,294,0.0,1.0,67,0.00,,,0.00,LWC V2.10 B1813,2013-05-12 15:50:00,
2013-05-12 07:55:00,40.2,29.8,30.03,WNW,293,0.0,0.0,66,0.00,,,0.00,LWC V2.10 B1813,2013-05-12 15:55:00,
2013-05-12 08:00:00,40.3,30.2,30.03,WNW,292,0.0,0.0,67,0.00,,,0.00,LWC V2.10 B1813,2013-05-12 16:00:00,
2013-05-12 08:05:00,40.4,30.0,30.03,WNW,294,0.0,0.0,66,0.00,,,0.00,LWC V2.10 B1813,2013-05-12 16:05:00,
2013-05-12 08:10:00,40.5,30.4,30.03,WNW,294,0.0,0.0,67,0.00,,,0.00,LWC V2.10 B1813,2013-05-12 16:10:00,
2013-05-12 08:15:00,40.4,30.7,30.03,WNW,294,0.0,1.0,68,0.00,,,0.00,LWC V2.10 B1813,2013-05-12 16:15:00,
2013-05-12 08:20:00,40.1,30.4,30.03,North,0,0.0,1.0,68,0.00,,,0.00,LWC V2.10 B1813,2013-05-12 16:20:00,
2013-05-12 08:25:00,39.7,30.4,30.03,WNW,293,0.0,0.0,69,0.00,,,0.00,LWC V2.10 B1813,2013-05-12 16:25:00,
2013-05-12 08:30:00,39.7,30.7,30.03,WNW,293,0.0,2.0,70,0.00,,,0.00,LWC V2.10 B1813,2013-05-12 16:30:00,
2013-05-12 08:35:00,39.9,30.2,30.03,WNW,286,0.0,2.0,68,0.00,,,0.00,LWC V2.10 B1813,2013-05-12 16:35:00,
2013-05-12 08:40:00,40.3,30.2,30.03,West,272,3.0,3.0,67,0.00,,,0.00,LWC V2.10 B1813,2013-05-12 16:40:00,
2013-05-12 08:45:00,40.7,29.9,30.03,SSW,210,0.0,3.0,65,0.00,,,0.00,LWC V2.10 B1813,2013-05-12 16:45:00,
2013-05-12 08:50:00,40.9,30.8,30.03,SSW,197,3.0,3.0,67,0.00,,,0.00,LWC V2.10 B1813,2013-05-12 16:50:00,
2013-05-12 08:55:00,40.8,30.3,30.03,SSW,195,0.0,1.0,66,0.00,,,0.00,LWC V2.10 B1813,2013-05-12 16:55:00,
2013-05-12 09:00:00,40.9,29.7,30.03,SSW,196,0.0,2.0,64,0.00,,,0.00,LWC V2.10 B1813,2013-05-12 17:00:00,
2013-05-12 09:05:00,41.0,29.8,30.03,SSW,194,1.0,4.0,64,0.00,,,0.00,LWC V2.10 B1813,2013-05-12 17:05:00,
2013-05-12 09:10:00,41.1,29.9,30.03,SSW,195,0.0,2.0,64,0.00,,,0.00,LWC V2.10 B1813,2013-05-12 17:10:00,
2013-05-12 09:15:00,41.1,29.5,30.03,SSW,200,0.0,2.0,63,0.00,,,0.00,LWC V2.10 B1813,2013-05-12 17:15:00,
2013-05-12 09:20:00,41.3,30.1,30.03,SSW,200,4.0,4.0,64,0.00,,,0.00,LWC V2.10 B1813,2013-05-12 17:20:00,
2013-05-12 09:25:00,41.3,29.7,30.03,South,189,2.0,3.0,63,0.00,,,0.00,LWC V2.10 B1813,2013-05-12 17:25:00,
2013-05-12 09:30:00,41.2,29.6,30.03,SSW,198,2.0,4.0,63,0.00,,,0.00,LWC V2.10 B1813,2013-05-12 17:30:00,
2013-05-12 09:35:00,41.2,29.2,30.02,SSW,196,3.0,3.0,62,0.00,,,0.00,LWC V2.10 B1813,2013-05-12 17:35:00,
2013-05-12 09:40:00,41.3,30.1,30.02,SSW,199,0.0,2.0,64,0.00,,,0.00,LWC V2.10 B1813,2013-05-12 17:40:00,
2013-05-12 09:45:00,41.3,29.7,30.02,SSW,204,3.0,4.0,63,0.00,,,0.00,LWC V2.10 B1813,2013-05-12 17:45:00,
2013-05-12 09:50:00,41.4,29.4,30.02,SSW,196,3.0,4.0,62,0.00,,,0.00,LWC V2.10 B1813,2013-05-12 17:50:00,
2013-05-12 09:55:00,41.5,29.9,30.02,SW,232,3.0,7.0,63,0.00,,,0.00,LWC V2.10 B1813,2013-05-12 17:55:00,
2013-05-12 10:00:00,41.6,30.0,30.02,SSW,198,2.0,9.0,63,0.00,,,0.00,LWC V2.10 B1813,2013-05-12 18:00:00,
2013-05-12 10:05:00,41.6,30.0,30.02,SW,222,5.0,5.0,63,0.00,,,0.00,LWC V2.10 B1813,2013-05-12 18:05:00,
2013-05-12 10:10:00,42.0,30.7,30.02,South,187,3.0,5.0,64,0.00,,,0.00,LWC V2.10 B1813,2013-05-12 18:10:00,
2013-05-12 10:15:00,42.1,30.8,30.02,South,182,4.0,7.0,64,0.00,,,0.00,LWC V2.10 B1813,2013-05-12 18:15:00,
2013-05-12 10:20:00,42.1,30.8,30.02,SSE,167,3.0,8.0,64,0.00,,,0.00,LWC V2.10 B1813,2013-05-12 18:20:00,
2013-05-12 10:25:00,41.9,30.6,30.02,SE,137,1.0,3.0,64,0.00,,,0.00,LWC V2.10 B1813,2013-05-12 18:25:00,
2013-05-12 10:30:00,41.5,30.2,30.02,SSE,168,0.0,3.0,64,0.00,,,0.00,LWC V2.10 B1813,2013-05-12 18:30:00,
2013-05-12 10:35:00,41.5,30.6,30.02,SSE,165,1.0,4.0,65,0.00,,,0.00,LWC V2.10 B1813,2013-05-12 18:35:00,
2013-05-12 10:40:00,41.3,30.4,30.02,SE,144,4.0,5.0,65,0.00,,,0.00,LWC V2.10 B1813,2013-05-12 18:40:00,
2013-05-12 10:45:00,41.1,30.2,30.02,SSE,157,2.0,5.0,65,0.00,,,0.00,LWC V2.10 B1813,2013-05-12 18:45:00,
2013-05-12 10:50:00,41.2,30.7,30.02,SSE,153,3.0,3.0,66,0.00,,,0.00,LWC V2.10 B1813,2013-05-12 18:50:00,
2013-05-12 10:55:00,41.4,30.5,30.02,South,173,0.0,1.0,65,0.00,,,0.00,LWC V2.10 B1813,2013-05-12 18:55:00,
2013-05-12 11:00:00,41.7,30.4,30.02,SSW,200,0.0,1.0,64,0.00,,,0.00,LWC V2.10 B1813,2013-05-12 19:00:00,
2013-05-12 11:05:00,42.0,31.1,30.02,SSW,199,1.0,1.0,65,0.00,,,0.00,LWC V2.10 B1813,2013-05-12 19:05:00,
2013-05-12 11:10:00,42.1,30.8,30.02,South,188,5.0,5.0,64,0.00,,,0.00,LWC V2.10 B1813,2013-05-12 19:10:00,
2013-05-12 11:15:00,42.2,30.9,30.02,SSW,198,0.0,2.0,64,0.00,,,0.00,LWC V2.10 B1813,2013-05-12 19:15:00,
2013-05-12 11:20:00,42.6,30.9,30.02,SSW,198,2.0,3.0,63,0.00,,,0.00,LWC V2.10 B1813,2013-05-12 19:20:00,
2013-05-12 11:25:00,43.1,31.0,30.01,South,190,1.0,2.0,62,0.00,,,0.00,LWC V2.10 B1813,2013-05-12 19:25:00,
2013-05-12 11:30:00,43.5,31.0,30.01,SSW,200,3.0,6.0,61,0.00,,,0.00,LWC V2.10 B1813,2013-05-12 19:30:00,
2013-05-12 11:35:00,43.7,31.1,30.01,South,183,1.0,2.0,61,0.00,,,0.00,LWC V2.10 B1813,2013-05-12 19:35:00,
2013-05-12 11:40:00,43.8,31.2,30.01,South,186,2.0,4.0,61,0.00,,,0.00,LWC V2.10 B1813,2013-05-12 19:40:00,
2013-05-12 11:45:00,43.6,31.5,30.01,SSW,198,3.0,4.0,62,0.00,,,0.00,LWC V2.10 B1813,2013-05-12 19:45:00,
2013-05-12 11:50:00,44.0,31.4,30.01,South,184,1.0,4.0,61,0.00,,,0.00,LWC V2.10 B1813,2013-05-12 19:50:00,
2013-05-12 11:55:00,44.0,31.4,30.01,SSW,195,4.0,5.0,61,0.00,,,0.00,LWC V2.10 B1813,2013-05-12 19:55:00,
2013-05-12 12:00:00,44.1,31.5,30.01,South,174,0.0,3.0,61,0.00,,,0.00,LWC V2.10 B1813,2013-05-12 20:00:00,
2013-05-12 12:05:00,44.3,31.3,30.01,South,169,0.0,3.0,60,0.00,,,0.00,LWC V2.10 B1813,2013-05-12 20:05:00,
2013-05-12 12:10:00,44.4,31.8,30.00,SE,139,4.0,4.0,61,0.00,,,0.00,LWC V2.10 B1813,2013-05-12 20:10:00,
2013-05-12 12:15:00,44.4,31.0,30.00,SSE,157,2.0,4.0,59,0.00,,,0.00,LWC V2.10 B1813,2013-05-12 20:15:00,
2013-05-12 12:20:00,44.5,31.5,30.00,SSE,162,6.0,7.0,60,0.00,,,0.00,LWC V2.10 B1813,2013-05-12 20:20:00,
2013-05-12 12:25:00,44.4,31.0,30.00,SE,140,2.0,7.0,59,0.00,,,0.00,LWC V2.10 B1813,2013-05-12 20:25:00,
2013-05-12 12:30:00,44.5,31.1,30.00,ESE,109,2.0,3.0,59,0.00,,,0.00,LWC V2.10 B1813,2013-05-12 20:30:00,
2013-05-12 12:35:00,45.0,31.1,29.99,SSW,195,0.0,6.0,58,0.00,,,0.00,LWC V2.10 B1813,2013-05-12 20:35:00,
2013-05-12 12:40:00,45.9,31.5,30.00,SSW,198,1.0,5.0,57,0.00,,,0.00,LWC V2.10 B1813,2013-05-12 20:40:00,
2013-05-12 12:45:00,46.6,31.8,29.99,ESE,118,4.0,4.0,56,0.00,,,0.00,LWC V2.10 B1813,2013-05-12 20:45:00,
2013-05-12 12:50:00,45.8,31.4,29.99,ESE,119,2.0,4.0,57,0.00,,,0.00,LWC V2.10 B1813,2013-05-12 20:50:00,
2013-05-12 12:55:00,45.7,31.3,29.99,SE,144,5.0,8.0,57,0.00,,,0.00,LWC V2.10 B1813,2013-05-12 20:55:00,
2013-05-12 13:00:00,46.2,31.4,29.99,ESE,121,3.0,4.0,56,0.00,,,0.00,LWC V2.10 B1813,2013-05-12 21:00:00,
2013-05-12 13:05:00,46.7,30.5,29.99,SSE,164,3.0,6.0,53,0.00,,,0.00,LWC V2.10 B1813,2013-05-12 21:05:00,
2013-05-12 13:10:00,47.4,29.7,29.99,SSE,164,4.0,5.0,50,0.00,,,0.00,LWC V2.10 B1813,2013-05-12 21:10:00,
2013-05-12 13:15:00,47.6,29.9,29.98,South,171,4.0,4.0,50,0.00,,,0.00,LWC V2.10 B1813,2013-05-12 21:15:00,
2013-05-12 13:20:00,48.2,30.4,29.98,South,174,2.0,4.0,50,0.00,,,0.00,LWC V2.10 B1813,2013-05-12 21:20:00,
2013-05-12 13:25:00,48.0,29.3,29.98,SSE,161,4.0,10.0,48,0.00,,,0.00,LWC V2.10 B1813,2013-05-12 21:25:00,
2013-05-12 13:30:00,47.9,30.7,29.98,WSW,249,6.0,6.0,51,0.00,,,0.00,LWC V2.10 B1813,2013-05-12 21:30:00,
2013-05-12 13:35:00,48.9,29.0,29.98,SW,236,4.0,6.0,46,0.00,,,0.00,LWC V2.10 B1813,2013-05-12 21:35:00,
2013-05-12 13:40:00,49.9,30.0,29.98,WSW,249,0.0,6.0,46,0.00,,,0.00,LWC V2.10 B1813,2013-05-12 21:40:00,
2013-05-12 13:45:00,50.5,28.8,29.98,SSW,202,3.0,8.0,43,0.00,,,0.00,LWC V2.10 B1813,2013-05-12 21:45:00,
2013-05-12 13:50:00,50.5,29.4,29.97,SSW,212,4.0,10.0,44,0.00,,,0.00,LWC V2.10 B1813,2013-05-12 21:50:00,
2013-05-12 13:55:00,50.2,29.1,29.97,SSW,211,1.0,8.0,44,0.00,,,0.00,LWC V2.10 B1813,2013-05-12 21:55:00,
2013-05-12 14:00:00,49.8,28.8,29.97,South,173,5.0,6.0,44,0.00,,,0.00,LWC V2.10 B1813,2013-05-12 22:00:00,
2013-05-12 14:05:00,49.3,28.3,29.97,WSW,250,4.0,9.0,44,0.00,,,0.00,LWC V2.10 B1813,2013-05-12 22:05:00,
2013-05-12 14:10:00,48.7,28.3,29.97,West,274,4.0,7.0,45,0.00,,,0.00,LWC V2.10 B1813,2013-05-12 22:10:00,
2013-05-12 14:15:00,48.3,30.0,29.97,WSW,242,4.0,10.0,49,0.00,,,0.00,LWC V2.10 B1813,2013-05-12 22:15:00,
2013-05-12 14:20:00,47.8,28.0,29.97,SSW,213,0.0,2.0,46,0.00,,,0.00,LWC V2.10 B1813,2013-05-12 22:20:00,
2013-05-12 14:25:00,47.7,29.0,29.96,South,186,0.0,1.0,48,0.00,,,0.00,LWC V2.10 B1813,2013-05-12 22:25:00,
2013-05-12 14:30:00,48.2,28.9,29.96,SW,223,1.0,4.0,47,0.00,,,0.00,LWC V2.10 B1813,2013-05-12 22:30:00,
2013-05-12 14:35:00,49.1,29.2,29.96,SSW,202,2.0,10.0,46,0.00,,,0.00,LWC V2.10 B1813,2013-05-12 22:35:00,
2013-05-12 14:40:00,49.4,29.0,29.96,SSW,202,10.0,10.0,45,0.00,,,0.00,LWC V2.10 B1813,2013-05-12 22:40:00,
2013-05-12 14:45:00,49.2,28.2,29.96,South,176,4.0,15.0,44,0.00,,,0.00,LWC V2.10 B1813,2013-05-12 22:45:00,
2013-05-12 14:50:00,49.0,28.6,29.95,SSE,152,4.0,10.0,45,0.00,,,0.00,LWC V2.10 B1813,2013-05-12 22:50:00,
2013-05-12 14:55:00,49.5,28.5,29.95,SSW,207,15.0,15.0,44,0.00,,,0.00,LWC V2.10 B1813,2013-05-12 22:55:00,
2013-05-12 15:00:00,50.1,29.0,29.95,SSW,209,1.0,13.0,44,0.00,,,0.00,LWC V2.10 B1813,2013-05-12 23:00:00,
2013-05-12 15:05:00,50.3,28.1,29.95,ESE,117,5.0,9.0,42,0.00,,,0.00,LWC V2.10 B1813,2013-05-12 23:05:00,
2013-05-12 15:10:00,50.1,28.5,29.95,SE,135,4.0,5.0,43,0.00,,,0.00,LWC V2.10 B1813,2013-05-12 23:10:00,
2013-05-12 15:15:00,49.7,27.0,29.95,SSE,152,5.0,14.0,41,0.00,,,0.00,LWC V2.10 B1813,2013-05-12 23:15:00,
2013-05-12 15:20:00,49.4,26.7,29.95,SSE,165,7.0,8.0,41,0.00,,,0.00,LWC V2.10 B1813,2013-05-12 23:20:00,
2013-05-12 15:25:00,49.2,27.1,29.95,South,175,6.0,11.0,42,0.00,,,0.00,LWC V2.10 B1813,2013-05-12 23:25:00,
2013-05-12 15:30:00,49.2,27.7,29.94,SSW,198,6.0,9.0,43,0.00,,,0.00,LWC V2.10 B1813,2013-05-12 23:30:00,
2013-05-12 15:35:00,49.6,26.9,29.94,SSE,163,4.0,12.0,41,0.00,,,0.00,LWC V2.10 B1813,2013-05-12 23:35:00,
2013-05-12 15:40:00,49.7,26.4,29.94,South,182,13.0,13.0,40,0.00,,,0.00,LWC V2.10 B1813,2013-05-12 23:40:00,
2013-05-12 15:45:00,49.9,27.1,29.94,SSW,200,3.0,11.0,41,0.00,,,0.00,LWC V2.10 B1813,2013-05-12 23:45:00,
2013-05-12 15:50:00,50.0,26.0,29.94,South,175,6.0,14.0,39,0.00,,,0.00,LWC V2.10 B1813,2013-05-12 23:50:00,
2013-05-12 15:55:00,49.3,26.6,29.93,SSE,167,4.0,13.0,41,0.00,,,0.00,LWC V2.10 B1813,2013-05-12 23:55:00,
2013-05-12 16:00:00,48.7,26.6,29.93,SSE,162,2.0,10.0,42,0.00,,,0.00,LWC V2.10 B1813,2013-05-13 00:00:00,
2013-05-12 16:05:00,48.7,27.2,29.93,SSW,211,3.0,7.0,43,0.00,,,0.00,LWC V2.10 B1813,2013-05-13 00:05:00,
2013-05-12 16:10:00,48.7,27.8,29.93,SSW,211,12.0,12.0,44,0.00,,,0.00,LWC V2.10 B1813,2013-05-13 00:10:00,
2013-05-12 16:15:00,48.6,27.1,29.93,WSW,246,2.0,6.0,43,0.00,,,0.00,LWC V2.10 B1813,2013-05-13 00:15:00,
2013-05-12 16:20:00,48.8,28.4,29.92,West,281,5.0,7.0,45,0.00,,,0.00,LWC V2.10 B1813,2013-05-13 00:20:00,
2013-05-12 16:25:00,49.0,28.6,29.92,West,260,10.0,13.0,45,0.00,,,0.00,LWC V2.10 B1813,2013-05-13 00:25:00,
2013-05-12 16:30:00,48.9,28.5,29.92,SW,227,9.0,14.0,45,0.00,,,0.00,LWC V2.10 B1813,2013-05-13 00:30:00,
2013-05-12 16:35:00,48.7,28.3,29.92,SSW,194,6.0,11.0,45,0.00,,,0.00,LWC V2.10 B1813,2013-05-13 00:35:00,
2013-05-12 16:40:00,48.7,28.3,29.93,WSW,242,7.0,10.0,45,0.00,,,0.00,LWC V2.10 B1813,2013-05-13 00:40:00,
2013-05-12 16:45:00,48.5,28.7,29.92,SW,231,5.0,12.0,46,0.00,,,0.00,LWC V2.10 B1813,2013-05-13 00:45:00,
2013-05-12 16:50:00,48.6,27.7,29.92,North,0,2.0,9.0,44,0.00,,,0.00,LWC V2.10 B1813,2013-05-13 00:50:00,
2013-05-12 16:55:00,48.7,26.6,29.92,West,279,7.0,12.0,42,0.00,,,0.00,LWC V2.10 B1813,2013-05-13 00:55:00,
2013-05-12 17:00:00,48.5,27.6,29.92,SW,214,6.0,9.0,44,0.00,,,0.00,LWC V2.10 B1813,2013-05-13 01:00:00,
2013-05-12 17:05:00,48.5,27.6,29.92,WNW,285,5.0,16.0,44,0.00,,,0.00,LWC V2.10 B1813,2013-05-13 01:05:00,
2013-05-12 17:10:00,48.4,26.9,29.92,West,264,7.0,11.0,43,0.00,,,0.00,LWC V2.10 B1813,2013-05-13 01:10:00,
2013-05-12 17:15:00,48.5,28.1,29.92,SW,221,1.0,7.0,45,0.00,,,0.00,LWC V2.10 B1813,2013-05-13 01:15:00,
2013-05-12 17:20:00,48.6,28.8,29.92,West,277,3.0,14.0,46,0.00,,,0.00,LWC V2.10 B1813,2013-05-13 01:20:00,
2013-05-12 17:25:00,48.4,28.0,29.92,West,276,7.0,11.0,45,0.00,,,0.00,LWC V2.10 B1813,2013-05-13 01:25:00,
2013-05-12 17:30:00,48.2,28.9,29.92,SW,236,7.0,12.0,47,0.00,,,0.00,LWC V2.10 B1813,2013-05-13 01:30:00,
2013-05-12 17:35:00,48.1,28.3,29.91,WSW,257,10.0,10.0,46,0.00,,,0.00,LWC V2.10 B1813,2013-05-13 01:35:00,
2013-05-12 17:40:00,48.2,28.9,29.92,WSW,251,11.0,12.0,47,0.00,,,0.00,LWC V2.10 B1813,2013-05-13 01:40:00,
2013-05-12 17:45:00,48.3,28.0,29.91,SW,223,8.0,11.0,45,0.00,,,0.00,LWC V2.10 B1813,2013-05-13 01:45:00,
2013-05-12 17:50:00,48.7,28.9,29.91,West,276,9.0,17.0,46,0.00,,,0.00,LWC V2.10 B1813,2013-05-13 01:50:00,
2013-05-12 17:55:00,49.0,29.1,29.91,West,264,4.0,14.0,46,0.00,,,0.00,LWC V2.10 B1813,2013-05-13 01:55:00,
2013-05-12 18:00:00,48.8,28.9,29.91,WNW,297,3.0,8.0,46,0.00,,,0.00,LWC V2.10 B1813,2013-05-13 02:00:00,
2013-05-12 18:05:00,48.6,28.2,29.91,WSW,241,9.0,13.0,45,0.00,,,0.00,LWC V2.10 B1813,2013-05-13 02:05:00,
2013-05-12 18:10:00,48.2,28.9,29.91,SW,227,1.0,13.0,47,0.00,,,0.00,LWC V2.10 B1813,2013-05-13 02:10:00,
2013-05-12 18:15:00,47.9,28.7,29.91,SW,217,6.0,11.0,47,0.00,,,0.00,LWC V2.10 B1813,2013-05-13 02:15:00,
2013-05-12 18:20:00,47.6,27.9,29.91,SW,225,6.0,14.0,46,0.00,,,0.00,LWC V2.10 B1813,2013-05-13 02:20:00,
2013-05-12 18:25:00,47.5,28.3,29.91,SW,226,7.0,12.0,47,0.00,,,0.00,LWC V2.10 B1813,2013-05-13 02:25:00,
2013-05-12 18:30:00,47.3,28.1,29.91,SSW,211,7.0,7.0,47,0.00,,,0.00,LWC V2.10 B1813,2013-05-13 02:30:00,
2013-05-12 18:35:00,47.2,29.0,29.90,SSW,213,4.0,9.0,49,0.00,,,0.00,LWC V2.10 B1813,2013-05-13 02:35:00,
2013-05-12 18:40:00,47.0,27.8,29.90,North,0,6.0,13.0,47,0.00,,,0.00,LWC V2.10 B1813,2013-05-13 02:40:00,
2013-05-12 18:45:00,46.8,27.6,29.90,WSW,239,10.0,12.0,47,0.00,,,0.00,LWC V2.10 B1813,2013-05-13 02:45:00,
2013-05-12 18:50:00,46.7,28.1,29.90,SW,230,14.0,15.0,48,0.00,,,0.00,LWC V2.10 B1813,2013-05-13 02:50:00,
2013-05-12 18:55:00,46.5,28.4,29.90,WSW,248,4.0,14.0,49,0.00,,,0.00,LWC V2.10 B1813,2013-05-13 02:55:00,
2013-05-12 19:00:00,46.1,28.0,29.90,WSW,245,6.0,13.0,49,0.00,,,0.00,LWC V2.10 B1813,2013-05-13 03:00:00,
2013-05-12 19:05:00,45.6,28.0,29.90,West,271,5.0,13.0,50,0.00,,,0.00,LWC V2.10 B1813,2013-05-13 03:05:00,
2013-05-12 19:10:00,45.2,27.2,29.90,WSW,258,4.0,6.0,49,0.00,,,0.00,LWC V2.10 B1813,2013-05-13 03:10:00,
2013-05-12 19:15:00,45.3,28.2,29.90,WSW,256,3.0,10.0,51,0.00,,,0.00,LWC V2.10 B1813,2013-05-13 03:15:00,
2013-05-12 19:20:00,45.2,27.7,29.90,SW,229,7.0,11.0,50,0.00,,,0.00,LWC V2.10 B1813,2013-05-13 03:20:00,
2013-05-12 19:25:00,45.0,28.0,29.90,West,280,1.0,8.0,51,0.00,,,0.00,LWC V2.10 B1813,2013-05-13 03:25:00,
2013-05-12 19:30:00,44.6,28.1,29.90,WSW,248,1.0,8.0,52,0.00,,,0.00,LWC V2.10 B1813,2013-05-13 03:30:00,
2013-05-12 19:35:00,44.3,28.3,29.90,West,275,5.0,10.0,53,0.00,,,0.00,LWC V2.10 B1813,2013-05-13 03:35:00,
2013-05-12 19:40:00,44.1,27.6,29.90,WSW,257,3.0,7.0,52,0.00,,,0.00,LWC V2.10 B1813,2013-05-13 03:40:00,
2013-05-12 19:45:00,44.0,28.0,29.90,SW,221,6.0,13.0,53,0.00,,,0.00,LWC V2.10 B1813,2013-05-13 03:45:00,
2013-05-12 19:50:00,43.9,27.9,29.90,West,273,4.0,11.0,53,0.00,,,0.00,LWC V2.10 B1813,2013-05-13 03:50:00,
2013-05-12 19:55:00,43.7,28.2,29.90,WSW,240,2.0,6.0,54,0.00,,,0.00,LWC V2.10 B1813,2013-05-13 03:55:00,
2013-05-12 20:00:00,43.5,28.4,29.90,WSW,241,6.0,8.0,55,0.00,,,0.00,LWC V2.10 B1813,2013-05-13 04:00:00,
2013-05-12 20:01:00,43.5,28.4,29.90,West,262,7.0,10.0,55,0.00,,,0.00,LWC V2.10 B1813,2013-05-13 04:01:00,
2013-05-12 20:06:00,43.2,28.1,29.90,WSW,244,7.0,13.0,55,0.00,,,0.00,LWC V2.10 B1813,2013-05-13 04:06:00,
2013-05-12 20:11:00,42.8,28.2,29.90,NW,309,9.0,12.0,56,0.00,,,0.00,LWC V2.10 B1813,2013-05-13 04:11:00,
2013-05-12 20:16:00,42.4,27.4,29.90,West,275,3.0,13.0,55,0.00,,,0.00,LWC V2.10 B1813,2013-05-13 04:16:00,
2013-05-12 20:21:00,42.0,27.9,29.90,WSW,257,4.0,13.0,57,0.00,,,0.00,LWC V2.10 B1813,2013-05-13 04:21:00,
2013-05-12 20:26:00,41.7,26.7,29.90,North,0,5.0,14.0,55,0.00,,,0.00,LWC V2.10 B1813,2013-05-13 04:26:00,
2013-05-12 20:31:00,41.5,27.4,29.90,WSW,250,16.0,16.0,57,0.00,,,0.00,LWC V2.10 B1813,2013-05-13 04:31:00,
2013-05-12 20:36:00,41.4,27.7,29.90,WSW,237,8.0,13.0,58,0.00,,,0.00,LWC V2.10 B1813,2013-05-13 04:36:00,
2013-05-12 20:41:00,41.1,28.3,29.90,WNW,285,12.0,14.0,60,0.00,,,0.00,LWC V2.10 B1813,2013-05-13 04:41:00,
2013-05-12 20:46:00,40.8,28.4,29.91,West,279,10.0,16.0,61,0.00,,,0.00,LWC V2.10 B1813,2013-05-13 04:46:00,
2013-05-12 20:51:00,40.5,28.5,29.90,North,0,9.0,15.0,62,0.00,,,0.00,LWC V2.10 B1813,2013-05-13 04:51:00,
2013-05-12 20:56:00,40.3,28.3,29.91,West,275,5.0,12.0,62,0.00,,,0.00,LWC V2.10 B1813,2013-05-13 04:56:00,
2013-05-12 21:01:00,40.1,29.3,29.91,North,0,10.0,12.0,65,0.00,,,0.00,LWC V2.10 B1813,2013-05-13 05:01:00,
2013-05-12 21:06:00,39.9,28.3,29.91,West,277,11.0,22.0,63,0.00,,,0.00,LWC V2.10 B1813,2013-05-13 05:06:00,
2013-05-12 21:11:00,39.6,28.4,29.91,West,271,11.0,17.0,64,0.00,,,0.00,LWC V2.10 B1813,2013-05-13 05:11:00,
2013-05-12 21:16:00,39.4,28.2,29.91,NW,312,6.0,17.0,64,0.00,,,0.00,LWC V2.10 B1813,2013-05-13 05:16:00,
2013-05-12 21:21:00,39.2,28.4,29.91,WNW,303,4.0,19.0,65,0.00,,,0.00,LWC V2.10 B1813,2013-05-13 05:21:00,
2013-05-12 21:26:00,39.0,28.6,29.91,NW,313,7.0,18.0,66,0.00,,,0.00,LWC V2.10 B1813,2013-05-13 05:26:00,
2013-05-12 21:31:00,38.7,28.7,29.91,WNW,283,7.0,22.0,67,0.00,,,0.00,LWC V2.10 B1813,2013-05-13 05:31:00,
2013-05-12 21:36:00,38.4,28.8,29.91,NW,312,12.0,19.0,68,0.00,,,0.00,LWC V2.10 B1813,2013-05-13 05:36:00,
2013-05-12 21:41:00,38.2,28.6,29.91,NW,306,12.0,16.0,68,0.00,,,0.00,LWC V2.10 B1813,2013-05-13 05:41:00,
2013-05-12 21:46:00,38.0,28.4,29.91,West,279,15.0,24.0,68,0.00,,,0.00,LWC V2.10 B1813,2013-05-13 05:46:00,
2013-05-12 21:51:00,37.8,28.6,29.92,West,276,6.0,19.0,69,0.00,,,0.00,LWC V2.10 B1813,2013-05-13 05:51:00,
2013-05-12 21:56:00,37.6,28.4,29.92,WNW,287,10.0,13.0,69,0.00,,,0.00,LWC V2.10 B1813,2013-05-13 05:56:00,
2013-05-12 22:01:00,37.5,28.6,29.92,WNW,286,9.0,20.0,70,0.00,,,0.00,LWC V2.10 B1813,2013-05-13 06:01:00,
2013-05-12 22:06:00,37.3,28.8,29.92,WNW,297,3.0,13.0,71,0.00,,,0.00,LWC V2.10 B1813,2013-05-13 06:06:00,
2013-05-12 22:11:00,37.2,29.0,29.92,West,266,8.0,19.0,72,0.00,,,0.00,LWC V2.10 B1813,2013-05-13 06:11:00,
2013-05-12 22:16:00,37.0,28.8,29.92,WNW,285,8.0,14.0,72,0.00,,,0.00,LWC V2.10 B1813,2013-05-13 06:16:00,
2013-05-12 22:21:00,36.9,28.4,29.92,West,275,8.0,16.0,71,0.00,,,0.00,LWC V2.10 B1813,2013-05-13 06:21:00,
2013-05-12 22:26:00,36.8,28.3,29.92,WNW,284,8.0,15.0,71,0.00,,,0.00,LWC V2.10 B1813,2013-05-13 06:26:00,
2013-05-12 22:31:00,36.6,28.1,29.92,WNW,292,9.0,15.0,71,0.00,,,0.00,LWC V2.10 B1813,2013-05-13 06:31:00,
2013-05-12 22:36:00,36.4,28.2,29.93,NW,314,8.0,20.0,72,0.00,,,0.00,LWC V2.10 B1813,2013-05-13 06:36:00,
2013-05-12 22:41:00,36.2,28.4,29.93,West,281,4.0,21.0,73,0.00,,,0.00,LWC V2.10 B1813,2013-05-13 06:41:00,
2013-05-12 22:46:00,36.1,28.3,29.93,North,0,2.0,14.0,73,0.00,,,0.00,LWC V2.10 B1813,2013-05-13 06:46:00,
2013-05-12 22:51:00,35.9,28.1,29.93,NW,318,11.0,13.0,73,0.00,,,0.00,LWC V2.10 B1813,2013-05-13 06:51:00,
2013-05-12 22:56:00,35.7,27.9,29.93,West,263,7.0,15.0,73,0.00,,,0.00,LWC V2.10 B1813,2013-05-13 06:56:00,
2013-05-12 23:01:00,35.6,28.1,29.93,WNW,290,7.0,10.0,74,0.00,,,0.00,LWC V2.10 B1813,2013-05-13 07:01:00,
2013-05-12 23:06:00,35.4,27.6,29.93,WNW,288,7.0,12.0,73,0.00,,,0.00,LWC V2.10 B1813,2013-05-13 07:06:00,
2013-05-12 23:11:00,35.3,27.9,29.92,WNW,303,8.0,16.0,74,0.00,,,0.00,LWC V2.10 B1813,2013-05-13 07:11:00,
2013-05-12 23:16:00,35.1,27.7,29.92,WSW,252,5.0,17.0,74,0.00,,,0.00,LWC V2.10 B1813,2013-05-13 07:16:00,
2013-05-12 23:21:00,35.0,27.2,29.93,West,267,7.0,13.0,73,0.00,,,0.00,LWC V2.10 B1813,2013-05-13 07:21:00,
2013-05-12 23:26:00,34.8,26.7,29.93,NNW,327,6.0,13.0,72,0.00,,,0.00,LWC V2.10 B1813,2013-05-13 07:26:00,
2013-05-12 23:31:00,34.6,26.5,29.93,West,281,3.0,19.0,72,0.00,,,0.00,LWC V2.10 B1813,2013-05-13 07:31:00,
2013-05-12 23:36:00,34.5,26.8,29.93,WSW,250,8.0,9.0,73,0.00,,,0.00,LWC V2.10 B1813,2013-05-13 07:36:00,
2013-05-12 23:41:00,34.4,26.7,29.93,WSW,255,6.0,14.0,73,0.00,,,0.00,LWC V2.10 B1813,2013-05-13 07:41:00,
2013-05-12 23:46:00,34.4,26.7,29.94,WNW,294,5.0,20.0,73,0.00,,,0.00,LWC V2.10 B1813,2013-05-13 07:46:00,
2013-05-12 23:51:00,34.4,26.0,29.93,WNW,297,1.0,16.0,71,0.00,,,0.00,LWC V2.10 B1813,2013-05-13 07:51:00,
2013-05-12 23:56:00,34.3,25.2,29.93,West,281,5.0,10.0,69,0.00,,,0.00,LWC V2.10 B1813,2013-05-13 07:56:00,